Regional Weather Roundup
Issued by NWS

Home | Current Version | Previous Version | Text Only | Print | Product List | Glossary On
Versions: 1 2 3 4 5 6 7 8 9 10 11 12 13 14 15 16 17 18 19 20 21 22 23 24 25 26 27 28 29 30 31 32 33 34 35 36 37 38 39 40 41 42 43 44 45 46 47 48 49 50
000
ASUS43 KMPX 230901
RWRMN
WEATHER ROUNDUP FOR MINNESOTA
NATIONAL WEATHER SERVICE TWIN CITIES/CHANHASSEN MN
400 AM CDT TUE SEP 23 2014


NOTE: "FAIR" INDICATES FEW OR NO CLOUDS BELOW 12,000 FEET WITH NO
SIGNIFICANT WEATHER AND/OR OBSTRUCTIONS TO VISIBILITY. N/A MEANS
CURRENT SKY AND/OR WEATHER CONDITIONS ARE NOT AVAILABLE.

MNZ060>063-068>070-231000-
   Twin Cities Metro

CITY           SKY/WX    TMP DP  RH WIND       PRES   REMARKS
TWIN CITIES    CLEAR     52  48  86 SE6       30.18S
ST PAUL        CLEAR     52  51  97 SE3       30.19S
CRYSTAL        CLEAR     50  47  89 CALM      30.16F FOG
BLAINE         CLEAR     54  52  94 S3        30.17S
LAKEVILLE      CLEAR     45  45 100 CALM      30.19S
EDEN PRAIRIE   CLEAR     52  48  86 S5        30.17S
SOUTH ST PAUL  CLEAR     50  48  93 CALM      30.18S
LAKE ELMO      FOG       45  45 100 CALM      30.19S VSB 3/4
$$
MNZ001>005-007-008-013>017-022>024-027-028-231000-
   Northwest Minnesota

CITY           SKY/WX    TMP DP  RH WIND       PRES   REMARKS
BEMIDJI        FOG       43  43  99 E3        30.11S VSB 3/4
HALLOCK        CLEAR     52  48  87 SE9       30.01S
ROSEAU         CLEAR     50  45  81 S7        30.05F
WARROAD        CLEAR     54  48  82 CALM      30.06F
THIEF RVR FALL CLEAR     52  46  82 SE7       30.05F
CROOKSTON      CLEAR     52  48  87 SE9       30.04S
FOSSTON        CLEAR     52  46  82 CALM      30.08S
DETROIT LAKES  CLEAR     54  50  87 SE7       30.10S
MOORHEAD       CLEAR     57  52  82 S12       30.05S
PARK RAPIDS    CLEAR     47  45  93 SE6       30.11F
MAHNOMEN       FAIR      53  47  82 SE7       30.07F
$$
MNZ006-009>011-018-025>026-231000-
   North Central Minnesota

CITY           SKY/WX    TMP DP  RH WIND       PRES   REMARKS
BAUDETTE       CLEAR     48  46  93 CALM      30.08S
FLAG ISLAND    CLEAR     57  54  88 S6        30.05S
INTL FALLS     CLEAR     41  40  96 SE3       30.11S
WASKISH        CLEAR     54  48  82 CALM      30.10S
BIG FORK       CLEAR     41  39  93 CALM      30.14S
LONGVILLE      CLEAR     39  39 100 CALM      30.13S
GRAND RAPIDS   CLEAR     43  39  87 SE3       30.14S
CRANE LAKE     CLEAR     39  39 100 CALM      30.15S
ORR            CLEAR     48  46  93 CALM      30.12S
COOK           CLEAR     43  43 100 CALM      30.15S
WALKER         FAIR      47  46  97 CALM      30.12S
$$
MNZ012-019>021-037-231000-
   Northeast Minnesota

CITY           SKY/WX    TMP DP  RH WIND       PRES   REMARKS
DULUTH         CLEAR     54  47  77 CALM      30.17S
ELY            CLEAR     43  43 100 CALM      30.16R
HIBBING        FOG       39  37  92 CALM      30.16S VSB 3/4
EVELETH        FOG       37  37 100 CALM      30.17S VSB 1/2
DULUTH HARBOR  CLEAR     54  52  94 S3        30.16S
TWO HARBORS    CLEAR     50  45  81 SW3       30.14S
SILVER BAY     CLEAR     46  46 100 CALM      30.14R
GRAND MARAIS     N/A     56  49  77 W3        30.11S
G MARAIS ARPRT CLEAR     54  45  71 NW5       30.16R
$$
MNZ029>031-032-039>041-046>048-054>057-064-231000-
   West Central Minnesota

CITY           SKY/WX    TMP DP  RH WIND       PRES   REMARKS
FERGUS FALLS   CLEAR     55  46  71 S9        30.08F
WHEATON        CLEAR     52  46  82 SE12      30.08F
MORRIS         CLEAR     50  48  93 SE8       30.09S
ALEXANDRIA     CLEAR     51  47  86 SE8       30.13S
ELBOW LAKE     FAIR      53  48  84 SE8       30.09S
WADENA         CLEAR     46  45  93 CALM      30.12S
GLENWOOD       CLEAR     46  46 100 SE8       30.13S
APPLETON       CLEAR     54  48  82 SE6       30.09F
BENSON         CLEAR     52  46  82 S6        30.11F
ORTONVILLE     CLEAR     52  46  82 SE8       30.08F
MADISON        CLEAR     52  48  87 SE5       30.09S
WILLMAR        FAIR      48  45  87 SE6       30.15S
$$
MNZ033>034-036-042>043-049>051-058-059-231000-
   Central Minnesota

CITY           SKY/WX    TMP DP  RH WIND       PRES   REMARKS
ST CLOUD       CLEAR     48  45  89 CALM      30.15F
SAUK CENTRE    FAIR      48  46  91 E3        30.14S
PAYNESVILLE    CLEAR     49  47  92 SE6       30.15S
AITKIN         HAZE      45  39  81 CALM      30.13F VSB 1/4
PINE RIVER     PTCLDY    43  43 100 CALM      30.16F
BRAINERD       CLEAR     46  45  96 CALM      30.15S FOG
STAPLES        CLEAR     45  43  93 SE3       30.13S
LONG PRAIRIE   FAIR      46  45  93 CALM      30.14S
LITTLE FALLS   CLEAR     45  43  93 CALM      30.14S
LITCHFIELD     CLEAR     52  52 100 CALM      30.16S
BUFFALO        CLEAR     49  46  88 CALM      30.18R
MAPLE LAKE     CLEAR     47  46  98 SE3       30.17S
$$
MNZ037-044-045-052-053-231000-
   East Central Minnesota

CITY           SKY/WX    TMP DP  RH WIND       PRES   REMARKS
PRINCETON      CLEAR     48  46  93 SE1       30.16F
MORA           CLEAR     43  43 100 CALM      30.18S
CAMBRIDGE      CLEAR     52  45  76 CALM      30.15S
RUSH CITY      PTCLDY    45  44  96 CALM      30.18S FOG
MOOSE LAKE     FOG       41  41 100 CALM      30.15F VSB 3/4
HINCKLEY       FAIR      41  41 100 CALM      30.17S
CLOQUET        CLEAR     48  45  87 CALM      30.16F
MCGREGOR       CLEAR     46  45  93 CALM      30.16S
$$
MNZ071>073-080-081-089-090-097-098-231000-
   Southwest Minnesota

CITY           SKY/WX    TMP DP  RH WIND       PRES   REMARKS
MONTEVIDEO     CLEAR     52  48  87 S6        30.12S
GRANITE FALLS  CLEAR     51  48  90 SE6       30.14S
CANBY          CLEAR     49  47  93 SE5       30.11S
MARSHALL       CLEAR     52  46  82 SE10      30.10F
REDWOOD FALLS  CLEAR     50  47  89 S6        30.14S
OLIVIA         CLEAR     50  45  81 SE6       30.13F
PIPESTONE      PTCLDY    54  48  82 S5        30.12S
WINDOM         CLEAR     52  48  87 SE6       30.15F
WORTHINGTON    CLEAR     54  46  76 S6        30.16S
JACKSON        CLEAR     52  46  82 S8        30.16F
TRACY          CLEAR     54  48  81 S10       30.13S
SLAYTON        CLEAR     46  46  98 CALM      30.15S
$$
MNZ065>067-074>077-082>085-091>093-231000-
   South Central Minnesota

CITY           SKY/WX    TMP DP  RH WIND       PRES   REMARKS
MANKATO        CLEAR     52  43  71 S9        30.18S
NEW ULM        CLEAR     48  48 100 S6        30.16S
ST JAMES       CLEAR     48  45  87 SE3       30.17F
FAIRMONT       CLEAR     46  41  81 S7        30.17F
GLENCOE        CLEAR     50  45  83 CALM      30.16S
FARIBAULT      CLEAR     48  43  81 SE5       30.20S
OWATONNA       CLEAR     52  46  82 SE5       30.20S
WASECA         CLEAR     46  41  81 CALM      30.21S
ALBERT LEA     CLEAR     52  48  87 S3        30.21S
$$
MNZ078>079-086>088-094>096-231000-
   Southeast Minnesota

CITY           SKY/WX    TMP DP  RH WIND       PRES   REMARKS
ROCHESTER      CLEAR     48  45  89 S8        30.23S
RED WING       CLEAR     46  46 100 CALM      30.19S
STANTON        CLEAR     47  45  93 CALM      30.18F
DODGE CENTER   PTCLDY    48  46  93 CALM      30.21F
WINONA         MOCLDY    48  48 100 CALM      30.22S
AUSTIN         CLEAR     45  43  93 SE3       30.21F
PRESTON        CLEAR     49  49 100 S6        30.23S
$$
ABBREVIATIONS USED IN REMARKS
   TC - TEMPERATURES IN CELSIUS
  WCI - WIND CHILL INDEX
   HX - HEAT INDEX
  VSB - VISIBILITY
$$


USA.gov is the U.S. government's official web portal to all federal, state and local government web resources and services.